| time (UTC) | temp F | wind direction | speed knots | gust knots | rain 1hr in | rain 24hr in | rain mn in | humidity % | barometer mb |
| 20260503200239 | 62 | 286 | 9.6 | 14.8 | 0.00 | 0.00 | 0.00 | 35 | 1050.9 |
| 20260503195737 | 63 | 277 | 7.0 | 11.3 | 0.00 | 0.00 | 0.00 | 33 | 1050.6 |
| 20260503195233 | 63 | 176 | 5.2 | 7.8 | 0.00 | 0.00 | 0.00 | 31 | 1050.8 |
| 20260503194731 | 62 | 332 | 3.5 | 8.7 | 0.00 | 0.00 | 0.00 | 35 | 1051.0 |
| 20260503194226 | 62 | 260 | 6.1 | 11.3 | 0.00 | 0.00 | 0.00 | 32 | 1050.8 |
| 20260503193723 | 62 | 228 | 7.0 | 11.3 | 0.00 | 0.00 | 0.00 | 29 | 1051.1 |
| 20260503193219 | 62 | 309 | 8.7 | 12.2 | 0.00 | 0.00 | 0.00 | 30 | 1051.2 |
| 20260503192715 | 62 | 296 | 4.3 | 11.3 | 0.00 | 0.00 | 0.00 | 30 | 1051.1 |
| 20260503192210 | 61 | 241 | 5.2 | 11.3 | 0.00 | 0.00 | 0.00 | 35 | 1051.3 |
| 20260503191707 | 62 | 324 | 2.6 | 7.8 | 0.00 | 0.00 | 0.00 | 30 | 1051.3 |
| 20260503191204 | 62 | 229 | 6.1 | 9.6 | 0.00 | 0.00 | 0.00 | 35 | 1051.4 |
| 20260503190701 | 61 | 236 | 2.6 | 6.1 | 0.00 | 0.00 | 0.00 | 39 | 1051.3 |
| 20260503190158 | 61 | 258 | 4.3 | 5.2 | 0.00 | 0.00 | 0.00 | 32 | 1051.7 |
| 20260503185655 | 61 | 274 | 5.2 | 9.6 | 0.00 | 0.00 | 0.00 | 31 | 1051.5 |
| 20260503185150 | 61 | 293 | 4.3 | 8.7 | 0.00 | 0.00 | 0.00 | 38 | 1051.8 |
| 20260503184645 | 62 | 272 | 6.1 | 12.2 | 0.00 | 0.00 | 0.00 | 34 | 1051.9 |
| 20260503184142 | 61 | 254 | 3.5 | 3.5 | 0.00 | 0.00 | 0.00 | 35 | 1051.7 |
| 20260503183638 | 60 | 286 | 4.3 | 8.7 | 0.00 | 0.00 | 0.00 | 38 | 1051.8 |
| 20260503183136 | 60 | 211 | 6.1 | 7.8 | 0.00 | 0.00 | 0.00 | 33 | 1052.0 |
| 20260503182634 | 60 | 243 | 7.8 | 9.6 | 0.00 | 0.00 | 0.00 | 34 | 1051.9 |
| 20260503182132 | 60 | 227 | 6.1 | 8.7 | 0.00 | 0.00 | 0.00 | 35 | 1051.8 |
| 20260503181629 | 61 | 204 | 5.2 | 13.0 | 0.00 | 0.00 | 0.00 | 32 | 1052.2 |
| 20260503181125 | 60 | 197 | 2.6 | 7.0 | 0.00 | 0.00 | 0.00 | 35 | 1052.0 |
| 20260503180622 | 60 | 217 | 2.6 | 5.2 | 0.00 | 0.00 | 0.00 | 34 | 1052.5 |
| 20260503180120 | 60 | 280 | 3.5 | 6.1 | 0.00 | 0.00 | 0.00 | 33 | 1052.5 |
| 20260503175617 | 59 | 218 | 10.4 | 13.9 | 0.00 | 0.00 | 0.00 | 36 | 1052.6 |
| 20260503175114 | 60 | 197 | 6.1 | 8.7 | 0.00 | 0.00 | 0.00 | 33 | 1052.4 |
| 20260503174611 | 60 | 203 | 4.3 | 7.0 | 0.00 | 0.00 | 0.00 | 38 | 1052.8 |
| 20260503174108 | 59 | 215 | 3.5 | 5.2 | 0.00 | 0.00 | 0.00 | 36 | 1052.6 |
| 20260503173602 | 60 | 201 | 4.3 | 6.1 | 0.00 | 0.00 | 0.00 | 32 | 1052.8 |
| 20260503173059 | 59 | 301 | 2.6 | 5.2 | 0.00 | 0.00 | 0.00 | 33 | 1052.8 |
| 20260503172556 | 58 | 109 | 2.6 | 5.2 | 0.00 | 0.00 | 0.00 | 31 | 1052.8 |
| 20260503172054 | 58 | 277 | 5.2 | 7.0 | 0.00 | 0.00 | 0.00 | 32 | 1053.0 |
| 20260503171550 | 59 | 253 | 4.3 | 8.7 | 0.00 | 0.00 | 0.00 | 31 | 1053.2 |
| 20260503171047 | 59 | 264 | 6.1 | 9.6 | 0.00 | 0.00 | 0.00 | 33 | 1053.2 |
| 20260503170543 | 58 | 170 | 1.7 | 7.0 | 0.00 | 0.00 | 0.00 | 30 | 1053.3 |
| 20260503150936 | 56 | 259 | 1.7 | 5.2 | 0.00 | 0.00 | 0.00 | 36 | 1054.1 |
| 20260503150433 | 56 | 221 | 3.5 | 5.2 | 0.00 | 0.00 | 0.00 | 37 | 1054.3 |
| 20260503131326 | 47 | 261 | 2.6 | 2.6 | 0.00 | 0.00 | 0.00 | 63 | 1054.5 |
| 20260503130823 | 46 | 252 | 0.9 | 6.1 | 0.00 | 0.00 | 0.00 | 69 | 1054.4 |
| 20260503130321 | 44 | 190 | 0.9 | 1.7 | 0.00 | 0.00 | 0.00 | 88 | 1054.2 |
| 20260503110714 | 28 | 154 | 0.0 | 0.0 | 0.00 | 0.00 | 0.00 | 97 | 1053.8 |
| 20260503110211 | 28 | 154 | 0.0 | 0.0 | 0.00 | 0.00 | 0.00 | 97 | 1053.9 |
| 20260503100138 | 28 | 154 | 0.0 | 0.0 | 0.00 | 0.00 | 0.00 | 97 | 1053.5 |
| 20260503081532 | 30 | 154 | 0.0 | 0.0 | 0.00 | 0.00 | 0.00 | 96 | 1052.8 |
| 20260503081030 | 30 | 154 | 0.0 | 0.0 | 0.00 | 0.00 | 0.00 | 96 | 1053.1 |
| 20260503080526 | 30 | 154 | 0.0 | 0.0 | 0.00 | 0.00 | 0.00 | 96 | 1053.0 |
| 20260503072500 | 31 | 154 | 0.9 | 0.9 | 0.00 | 0.00 | 0.00 | 96 | 1052.5 |
| 20260503071956 | 31 | 154 | 0.0 | 0.0 | 0.00 | 0.00 | 0.00 | 96 | 1052.6 |
| 20260503071454 | 31 | 154 | 0.0 | 0.0 | 0.00 | 0.00 | 0.00 | 96 | 1052.6 |
| 20260503070949 | 32 | 154 | 0.0 | 0.0 | 0.00 | 0.00 | 0.00 | 96 | 1052.5 |
| 20260503070447 | 32 | 154 | 0.0 | 0.0 | 0.00 | 0.00 | 0.00 | 96 | 1052.6 |
| 20260503054900 | 33 | 154 | 0.0 | 0.0 | 0.00 | 0.00 | 0.00 | 95 | 1052.7 |
| 20260503054356 | 33 | 154 | 0.0 | 0.0 | 0.00 | 0.00 | 0.00 | 95 | 1052.7 |
| 20260503053854 | 33 | 154 | 0.0 | 0.0 | 0.00 | 0.00 | 0.00 | 95 | 1052.8 |
| 20260503053352 | 33 | 154 | 0.0 | 0.0 | 0.00 | 0.00 | 0.00 | 95 | 1052.8 |
| 20260503052848 | 33 | 154 | 0.0 | 0.0 | 0.00 | 0.00 | 0.00 | 95 | 1052.8 |
| 20260503052345 | 34 | 154 | 0.0 | 0.0 | 0.00 | 0.00 | 0.00 | 95 | 1052.7 |
| 20260503051841 | 34 | 154 | 0.0 | 0.0 | 0.00 | 0.00 | 0.00 | 95 | 1052.7 |
| 20260503051338 | 34 | 155 | 0.0 | 0.0 | 0.00 | 0.00 | 0.00 | 95 | 1052.8 |
| 20260503050835 | 35 | 154 | 0.0 | 0.0 | 0.00 | 0.00 | 0.00 | 95 | 1052.8 |
| 20260503050331 | 35 | 155 | 0.0 | 0.0 | 0.00 | 0.00 | 0.00 | 95 | 1052.6 |
| 20260503045829 | 35 | 155 | 0.0 | 0.0 | 0.00 | 0.00 | 0.00 | 95 | 1052.8 |
| 20260503045326 | 36 | 155 | 0.0 | 0.0 | 0.00 | 0.00 | 0.00 | 95 | 1052.8 |
| 20260503044822 | 36 | 155 | 0.0 | 0.0 | 0.00 | 0.00 | 0.00 | 95 | 1052.7 |
| 20260503044319 | 36 | 155 | 0.0 | 0.0 | 0.00 | 0.00 | 0.00 | 94 | 1052.6 |
| 20260503043816 | 36 | 154 | 0.0 | 0.0 | 0.00 | 0.00 | 0.00 | 94 | 1052.7 |
| 20260503043313 | 36 | 155 | 0.0 | 0.0 | 0.00 | 0.00 | 0.00 | 94 | 1052.6 |
| 20260503042809 | 36 | 154 | 0.0 | 0.0 | 0.00 | 0.00 | 0.00 | 94 | 1052.8 |
| 20260503042306 | 36 | 154 | 0.0 | 0.0 | 0.00 | 0.00 | 0.00 | 94 | 1052.5 |
| 20260503041802 | 37 | 155 | 0.0 | 0.0 | 0.00 | 0.00 | 0.00 | 94 | 1052.6 |
| 20260503041300 | 36 | 155 | 0.0 | 0.0 | 0.00 | 0.00 | 0.00 | 93 | 1052.4 |
| 20260503040757 | 37 | 155 | 0.0 | 0.0 | 0.00 | 0.00 | 0.00 | 93 | 1052.4 |
| 20260503040255 | 37 | 154 | 0.0 | 0.0 | 0.00 | 0.00 | 0.00 | 93 | 1052.2 |
| 20260503035751 | 37 | 154 | 0.0 | 0.0 | 0.00 | 0.00 | 0.00 | 93 | 1052.4 |
| 20260503035249 | 38 | 155 | 0.0 | 0.0 | 0.00 | 0.00 | 0.00 | 93 | 1052.3 |
| 20260503034746 | 38 | 155 | 0.0 | 0.0 | 0.00 | 0.00 | 0.00 | 93 | 1052.3 |
| 20260503034243 | 38 | 155 | 0.0 | 0.0 | 0.00 | 0.00 | 0.00 | 92 | 1052.3 |
| 20260503033740 | 39 | 155 | 0.0 | 0.0 | 0.00 | 0.00 | 0.00 | 92 | 1052.3 |
| 20260503033238 | 39 | 155 | 0.0 | 0.0 | 0.00 | 0.00 | 0.00 | 92 | 1052.3 |
| 20260503032736 | 39 | 155 | 0.0 | 0.0 | 0.00 | 0.00 | 0.00 | 91 | 1052.1 |
| 20260503032234 | 40 | 155 | 0.0 | 0.0 | 0.00 | 0.00 | 0.00 | 91 | 1052.1 |
| 20260503031731 | 40 | 155 | 0.0 | 0.0 | 0.00 | 0.00 | 0.00 | 91 | 1052.1 |
| 20260503031229 | 40 | 155 | 0.0 | 0.0 | 0.00 | 0.00 | 0.00 | 91 | 1052.0 |
| 20260503030725 | 40 | 155 | 0.0 | 0.0 | 0.00 | 0.00 | 0.00 | 91 | 1052.1 |
| 20260503030221 | 40 | 155 | 0.0 | 0.0 | 0.00 | 0.00 | 0.00 | 90 | 1052.3 |
| 20260503025719 | 40 | 155 | 0.0 | 0.0 | 0.00 | 0.00 | 0.00 | 90 | 1052.2 |
| 20260503025216 | 40 | 155 | 0.0 | 0.0 | 0.00 | 0.00 | 0.00 | 90 | 1052.2 |
| 20260503024712 | 40 | 155 | 0.0 | 0.0 | 0.00 | 0.00 | 0.00 | 90 | 1052.1 |
| 20260503024210 | 40 | 155 | 0.0 | 0.0 | 0.00 | 0.00 | 0.00 | 89 | 1052.0 |
| 20260503023707 | 40 | 155 | 0.0 | 0.0 | 0.00 | 0.00 | 0.00 | 88 | 1051.8 |
| 20260503023203 | 40 | 155 | 0.0 | 0.0 | 0.00 | 0.00 | 0.00 | 87 | 1051.9 |
| 20260503022700 | 40 | 155 | 0.0 | 0.0 | 0.00 | 0.00 | 0.00 | 85 | 1051.7 |
| 20260503022159 | 41 | 155 | 0.0 | 0.0 | 0.00 | 0.00 | 0.00 | 84 | 1051.5 |
| 20260503021656 | 41 | 155 | 0.0 | 0.0 | 0.00 | 0.00 | 0.00 | 83 | 1051.7 |
| 20260503021153 | 41 | 155 | 0.9 | 0.9 | 0.00 | 0.00 | 0.00 | 81 | 1051.7 |
| 20260503020650 | 42 | 155 | 0.9 | 0.9 | 0.00 | 0.00 | 0.00 | 82 | 1051.4 |
| 20260503020148 | 42 | 155 | 0.0 | 0.9 | 0.00 | 0.00 | 0.00 | 80 | 1051.5 |
| 20260503015644 | 42 | 155 | 0.9 | 0.9 | 0.00 | 0.00 | 0.00 | 80 | 1051.4 |
| 20260503015141 | 43 | 155 | 0.0 | 0.9 | 0.00 | 0.00 | 0.00 | 79 | 1051.4 |
| 20260503014637 | 43 | 155 | 0.0 | 0.0 | 0.00 | 0.00 | 0.00 | 79 | 1051.3 |
| 20260503014135 | 44 | 155 | 0.0 | 0.0 | 0.00 | 0.00 | 0.00 | 77 | 1051.3 |
| 20260503013632 | 44 | 156 | 0.9 | 0.9 | 0.00 | 0.00 | 0.00 | 76 | 1051.4 |
| 20260503013130 | 45 | 155 | 0.9 | 0.9 | 0.00 | 0.00 | 0.00 | 75 | 1051.0 |
| 20260503012627 | 45 | 102 | 0.0 | 0.9 | 0.00 | 0.00 | 0.00 | 74 | 1051.0 |
| 20260503012124 | 46 | 101 | 0.9 | 0.9 | 0.00 | 0.00 | 0.00 | 75 | 1051.0 |
| 20260503011620 | 46 | 48 | 0.0 | 0.0 | 0.00 | 0.00 | 0.00 | 74 | 1050.9 |
| 20260503011118 | 47 | 48 | 0.0 | 0.0 | 0.00 | 0.00 | 0.00 | 72 | 1051.0 |
| 20260503010613 | 48 | 48 | 0.0 | 0.0 | 0.00 | 0.00 | 0.00 | 73 | 1050.8 |
| 20260503010111 | 49 | 48 | 0.0 | 0.0 | 0.00 | 0.00 | 0.00 | 72 | 1050.8 |
| 20260503005608 | 50 | 48 | 0.0 | 0.9 | 0.00 | 0.00 | 0.00 | 66 | 1050.9 |
| 20260503005105 | 50 | 48 | 0.9 | 0.9 | 0.00 | 0.00 | 0.00 | 57 | 1050.8 |
| 20260503004601 | 50 | 48 | 0.9 | 0.9 | 0.00 | 0.00 | 0.00 | 56 | 1050.7 |
| 20260503004100 | 50 | 48 | 0.9 | 0.9 | 0.00 | 0.00 | 0.00 | 53 | 1050.8 |
| 20260503003556 | 50 | 40 | 1.7 | 1.7 | 0.00 | 0.00 | 0.00 | 54 | 1050.6 |
| 20260503003053 | 50 | 51 | 0.9 | 0.9 | 0.00 | 0.00 | 0.00 | 53 | 1050.6 |
| 20260503002550 | 51 | 37 | 1.7 | 1.7 | 0.00 | 0.00 | 0.00 | 53 | 1050.7 |
| 20260503002047 | 51 | 38 | 0.0 | 0.9 | 0.00 | 0.00 | 0.00 | 54 | 1050.4 |
| 20260503001543 | 51 | 24 | 0.9 | 0.9 | 0.00 | 0.00 | 0.00 | 55 | 1050.2 |
| 20260503001041 | 52 | 46 | 0.9 | 1.7 | 0.00 | 0.00 | 0.00 | 52 | 1050.1 |
| 20260503000538 | 52 | 33 | 0.9 | 0.9 | 0.00 | 0.00 | 0.00 | 53 | 1050.2 |
| 20260503000035 | 53 | 43 | 0.9 | 1.7 | 0.00 | 0.00 | 0.00 | 50 | 1050.1 |
| 20260502235531 | 53 | 28 | 0.9 | 0.9 | 0.00 | 0.00 | 0.00 | 53 | 1050.0 |
| 20260502235030 | 52 | 38 | 1.7 | 2.6 | 0.00 | 0.00 | 0.00 | 50 | 1050.0 |
| 20260502234525 | 53 | 351 | 2.6 | 2.6 | 0.00 | 0.00 | 0.00 | 50 | 1050.2 |
| 20260502234023 | 53 | 48 | 2.6 | 3.5 | 0.00 | 0.00 | 0.00 | 49 | 1050.0 |
| 20260502233518 | 53 | 35 | 1.7 | 1.7 | 0.00 | 0.00 | 0.00 | 49 | 1050.1 |
| 20260502233015 | 55 | 42 | 1.7 | 2.6 | 0.00 | 0.00 | 0.00 | 47 | 1050.0 |
| 20260502232511 | 56 | 20 | 1.7 | 5.2 | 0.00 | 0.00 | 0.00 | 47 | 1050.1 |
| 20260502232009 | 56 | 336 | 1.7 | 3.5 | 0.00 | 0.00 | 0.00 | 50 | 1049.9 |
| 20260502231505 | 55 | 6 | 1.7 | 2.6 | 0.00 | 0.00 | 0.00 | 49 | 1050.0 |
| 20260502231003 | 55 | 49 | 4.3 | 6.1 | 0.00 | 0.00 | 0.00 | 48 | 1049.9 |
| 20260502230501 | 55 | 14 | 1.7 | 6.1 | 0.00 | 0.00 | 0.00 | 49 | 1050.2 |
| 20260502225959 | 55 | 6 | 2.6 | 5.2 | 0.00 | 0.00 | 0.00 | 47 | 1050.1 |
| 20260502225455 | 55 | 342 | 1.7 | 2.6 | 0.00 | 0.00 | 0.00 | 49 | 1050.1 |
| 20260502224952 | 56 | 312 | 2.6 | 5.2 | 0.00 | 0.00 | 0.00 | 46 | 1050.0 |
| 20260502224448 | 56 | 46 | 1.7 | 6.1 | 0.00 | 0.00 | 0.00 | 47 | 1050.1 |
| 20260502223945 | 56 | 19 | 1.7 | 2.6 | 0.00 | 0.00 | 0.00 | 53 | 1049.9 |
| 20260502223443 | 55 | 353 | 0.9 | 3.5 | 0.00 | 0.00 | 0.00 | 50 | 1050.0 |
| 20260502222941 | 54 | 309 | 2.6 | 2.6 | 0.00 | 0.00 | 0.00 | 51 | 1050.1 |
| 20260502222438 | 54 | 320 | 1.7 | 3.5 | 0.00 | 0.00 | 0.00 | 50 | 1050.3 |
| 20260502221934 | 54 | 298 | 1.7 | 2.6 | 0.00 | 0.00 | 0.00 | 53 | 1050.3 |
| 20260502221430 | 54 | 44 | 0.0 | 1.7 | 0.00 | 0.00 | 0.00 | 51 | 1050.1 |
| 20260502220927 | 54 | 349 | 0.9 | 5.2 | 0.00 | 0.00 | 0.00 | 50 | 1050.0 |
| 20260502220423 | 54 | 337 | 1.7 | 3.5 | 0.00 | 0.00 | 0.00 | 49 | 1050.1 |
| 20260502215920 | 54 | 325 | 1.7 | 2.6 | 0.00 | 0.00 | 0.00 | 54 | 1050.1 |
| 20260502215417 | 54 | 308 | 2.6 | 3.5 | 0.00 | 0.00 | 0.00 | 53 | 1050.0 |
| 20260502214914 | 54 | 37 | 1.7 | 3.5 | 0.00 | 0.00 | 0.00 | 51 | 1050.2 |
| 20260502214411 | 54 | 353 | 2.6 | 5.2 | 0.00 | 0.00 | 0.00 | 50 | 1050.0 |
| 20260502213908 | 54 | 319 | 5.2 | 6.1 | 0.00 | 0.00 | 0.00 | 51 | 1049.9 |
| 20260502213405 | 54 | 337 | 2.6 | 5.2 | 0.00 | 0.00 | 0.00 | 50 | 1049.9 |
| 20260502212904 | 54 | 328 | 2.6 | 3.5 | 0.00 | 0.00 | 0.00 | 54 | 1049.8 |
| 20260502212402 | 53 | 50 | 2.6 | 5.2 | 0.00 | 0.00 | 0.00 | 51 | 1049.9 |
| 20260502211859 | 53 | 335 | 2.6 | 2.6 | 0.00 | 0.00 | 0.00 | 51 | 1049.9 |
| 20260502211359 | 53 | 30 | 1.7 | 3.5 | 0.00 | 0.00 | 0.00 | 51 | 1050.1 |
| 20260502210857 | 54 | 358 | 0.9 | 5.2 | 0.00 | 0.00 | 0.00 | 53 | 1050.0 |
| 20260502210354 | 54 | 332 | 5.2 | 6.1 | 0.00 | 0.00 | 0.00 | 49 | 1049.9 |
| 20260502205852 | 55 | 43 | 2.6 | 7.0 | 0.00 | 0.00 | 0.00 | 48 | 1049.9 |
| 20260502205347 | 55 | 301 | 4.3 | 6.1 | 0.00 | 0.00 | 0.00 | 47 | 1050.0 |
| 20260502204845 | 55 | 5 | 4.3 | 6.1 | 0.00 | 0.00 | 0.00 | 47 | 1050.2 |
| 20260502204342 | 55 | 328 | 1.7 | 7.0 | 0.00 | 0.00 | 0.00 | 49 | 1050.0 |
| 20260502203839 | 55 | 33 | 3.5 | 5.2 | 0.00 | 0.00 | 0.00 | 47 | 1050.0 |
| 20260502203337 | 55 | 47 | 4.3 | 6.1 | 0.00 | 0.00 | 0.00 | 48 | 1050.0 |
| 20260502202832 | 56 | 46 | 1.7 | 5.2 | 0.00 | 0.00 | 0.00 | 47 | 1050.0 |
| 20260502202330 | 55 | 314 | 3.5 | 3.5 | 0.00 | 0.00 | 0.00 | 48 | 1050.3 |
| 20260502201827 | 54 | 11 | 0.9 | 5.2 | 0.00 | 0.00 | 0.00 | 49 | 1050.2 |
| 20260502201323 | 54 | 329 | 3.5 | 5.2 | 0.00 | 0.00 | 0.00 | 50 | 1050.4 |
| 20260502200820 | 54 | 352 | 1.7 | 5.2 | 0.00 | 0.00 | 0.00 | 48 | 1050.2 |